Погода в Верхнедвинске

Погода в Верхнедвинске : погода сейчас, прогноз погоды и архив. Всё, что Вы хотите узнать о погоде в Верхнедвинске!

Хотите узнать прогноз погоды в Верхнедвинске? Тогда Вам сюда: Погода в Верхнедвинске

Поиск расширенной информации на нашем сайте:

Другие новости

Новости СМИ2

Главная страница сайта

Новости сайта

03.07.2017

Напоминаем, что на нашем специализированном сайте Метеоцентр.Азия вы можете получить высокодетализированные автоматические прогнозы погоды по пунктам России, СНГ и мира в авиационном формате (включающие направление и скорость ветра, видимость, явления погоды, количество и форму облачности, нижнюю и верхнюю границу облачности).


Погода в Верхнедвинске - сегодня

Время (UTC), дата Ветер
(°,м/с) 
Видим.   Явления Облачность Т
(°С)
Тd
(°С)
f(%) Тe
(°С)
Pmin
(гПа)
dP
(гПа)
Po
(мм)
O2
(г/м3)
Тmin Tmax R s Состояние
почвы
03 19.08.17 140 (ЮВ) 9000 м  дымка{гроза, ливн. осадки}  10/3 600 м кучево-дожд., средняя, верхняя 
[Cb cap|Ac trans|Cs]
+18.4 +16.4 88 +30  1015.8  -1.1  750  280      0.1     
06 19.08.17 170 (Ю) 15000 м  {гроза, ливн. осадки}  9/0 верхняя 
[Ci fib]
+20.6 +14.9 70 +29  1015.3  -0.4  750  278  +17.6    0.1     
09 19.08.17 180 (Ю) 15000 м    4/1 600 м верхняя 
[Cu med, cong|Ci fib]
+26.6 +16.6 54 +38  1014.5  -0.5  750  272           
12 19.08.17 170 (Ю) 15000 м    1/0 верхняя 
[Ci fib]
+29.5 +16.6 46 +41  1013.8  -0.5  749  269           
15 19.08.17 170 (Ю) 3{10}  15000 м    1/0 верхняя 
[Ci fib]
+29.3 +15.5 43 +39  1012.7  -1.1  748  269           
18 19.08.17 160 (Ю) 12000 м    4/1 600 м кучево-дожд., верхняя 
[Cb cap|Ci fib]
+24.9 +15 54 +34  1013.4  0.4  749  273    +29.8       
21 19.08.17 280 (З) 15000 м  зарница  6/1 600 м кучево-дожд., верхняя 
[Cb cap|Ci fib]
+20.5 +17.3 82 +33  1016.2  2.6  751  277           
00 20.08.17 290 (З) 12000 м    9/0 средняя 
[Ac trans]
+19 +17.9 93 +34  1016.6  0.4  751  279           
03 20.08.17 300 (СЗ) 15000 м  {ливн. осадки}  9/4 600 м кучево-дожд., средняя 
[Cb cap|Ac trans]
+17.3 +16.1 93 +29  1017.5  0.8  752  281      0.3     
06 20.08.17 020 (С) 15000 м  {ливн. осадки}  9/5 600 м кучево-дожд., средняя 
[Cb cap|Ac trans]
+17.2 +15.5 90 +27  1018.3  0.7  752  282  +16.8    0.3     
09 20.08.17 350 (С) 20000 м    9/6 600 м средняя 
[Sc|Ac trans]
+18.3 +15.9 86 +29  1018.3  752  281           
12 20.08.17 330 (СЗ) 20000 м    9/3 600 м средняя 
[Sc|Ac trans]
+20 +16.4 80 +31  1017.5  -0.6  752  279           
15 20.08.17 350 (С) 20000 м    9/4 600 м кучево-дожд., средняя 
[Cb cap|Ac trans]
+19.4 +15.9 80 +30  1016.2  -1.3  751  279           
18 20.08.17 030 (СВ) 14000 м    9/5 600 м кучево-дожд., средняя 
[Cb cap|Ac trans]
+16.8 +14.2 85 +24  1015.1  -1.3  750  282    +20.2       
03 21.08.17 340 (С) 12000 м    10/0 средняя 
[As op]
+12.5 +11.2 92 +15  1014.5  -0.5  749  286      0.7     
06 21.08.17 310 (СЗ) 12000 м  в посл. час ливневой дождь  9/4 600 м кучево-дожд., средняя 
[Cb cap|Ac As]
+13.2 +12.5 96 +19  1014.2  -0.3  749  285  +12.4    0.8     
03 22.08.17 260 (З) 12000 м  {ливн. осадки}  9/9 630 м кучево-дожд. 
[Cb cap]
+13 +12.3 96 +17  1014.4  -0.3  749  286         
06 22.08.17 290 (З) 10 км  {ливн. осадки}  9/6 600 м кучево-дожд., средняя 
[Cb cap|Ac trans]
+14.4 +13.1 92 +22  1014  -0.3  749  284  +12.9       
09 22.08.17 310 (СЗ) 15000 м    9/6 600 м кучево-дожд., средняя 
[Cb cap|Ac trans]
+16.3 +12.1 76 +21  1013.4  -0.4  748  282           
12 22.08.17 340 (С) 15000 м    10/5 600 м кучево-дожд., средняя 
[Cb cap|Ac As]
+17 +11.7 71 +22  1013  -0.4  748  282           
15 22.08.17 050 (СВ) 15000 м    9/3 600 м кучево-дожд., средняя 
[Cb cap|Ac trans]
+16.8 +13 78 +23  1012.8  -0.2  748  281           
18 22.08.17 тихо ()   12000 м    10/3 600 м верхняя 
[Sc|Cs]
+14.1 +12.8 92 +19  1012.2  -0.7  747  284    +17.4       
21 22.08.17 350 (С) 10 км    10/0 средняя, верхняя 
[Ac trans|Cs]
+12.6 +11.7 94 +18  1011.2  -1.1  747  285           
00 23.08.17 350 (С) 10 км    10/0 средняя 
[As trans]
+12.6 +11.9 95 +18  1009.4  -1.8  745  285           
06 23.08.17 330 (СЗ) 10 км  слаб. ливневой дождь  9/8 600 м кучево-дожд., средняя 
[Cb cap|Ac trans]
+13 +12.1 94 +17  1006.9  -0.8  743  284  +12.5    0.6     
Время (UTC), дата Ветер
(°,м/с) 
Видим.   Явления Облачность Т
(°С)
Тd
(°С)
f(%) Тe
(°С)
Pmin
(гПа)
dP
(гПа)
Po
(мм)
O2
(г/м3)
Тmin Tmax R s Состояние
почвы

Для получения пояснительной информации подведите курсор к названию столбца.

ПОГОДА в Верхнедвинске - архив

Всё, что Вы хотите узнать о погоде в Верхнедвинске - удобно и подробно!

Выберите нужную дату (начиная с 1 января 2015* года) и нажмите кнопку "Найти".
Будут отображены архивные сводки погоды по пункту Верхнедвинск, начиная с указанной даты.


Отображать данные в формате CSV (для использования в таблицах Excel)


Внимание! Наш архив погоды предназначен исключительно для личного некоммерческого использования в познавательных целях. Если Вам необходимы официальные справки о состоянии погоды (для производственных, юридических, коммерческих и т.п. целей), обращайтесь в органы Росгидромета.

*Примечание: данная дата относится к архиву по метеостанциям СССР (Россия, СНГ, Балтия).
Архив по метеостанциям Зарубежной Европы и Азии (кроме Китая) хранится 10 дней, по другим регионам земного шара (Китай, Африка, Америка, Австралия, Океания) - 1 день.

Верхнедвинск - район местоположения метеостанции


Название, широта, долгота, высота метеостанции:
Верхнедвинск 55.8°ш. 27.9°д. 132 м над ур. моря [Беларусь]

Дополнительная информация

В oтличие oт бoльшинства пoгoдных сайтoв мы публикуем пoдрoбную метеoинфoрмацию в детальнoм прoфессиoнальнoм фoрмате.

Характеристики температуры и влажнoсти вoздуха измеряются на высoте 2 м в тени вдали oт зданий и деревьев.
Скoрoсть ветра измеряется на высoте 10 м (на урoвне рoста челoвека скoрoсть ветра ниже в 1.5-2 раза). Если метеoстанция нахoдится в гoрoде или в лесу, тo скoрoсть ветра занижена на 2-4 м/с пo сравнению с oткрытым местoм. Скoрoсть ветра над акватoриями крупных рек и oзёр, а также на вершинах хoлмoв на 2-5 м/с выше, чем в oбычных услoвиях.
Атмoсфернoе давление в разных тoчках местнoсти мoжет значительнo oтличаться oт давления на метеoстанции, в зависимoсти oт услoвий рельефа (при пoдъёме на 10 м давление пoнижается примернo на 1 мм рт.ст.).